Weather WX

World > North America > United States > Ohio

Reno, Ohio Regional Weather

Lat: 39.37N, Lon: 81.4W
Wx Zone: OHZ076
Feedback

Reno, OH Regional Weather

Expires:201906260300;;082773
ASUS41 KCLE 260212
RWRCLE
OHIO REGIONAL WEATHER ROUNDUP
NATIONAL WEATHER SERVICE WILMINGTON, OH
1000 PM EDT TUE JUN 25 2019

NOTE: "FAIR" INDICATES FEW OR NO CLOUDS BELOW 12,000 FEET WITH NO
SIGNIFICANT WEATHER AND/OR OBSTRUCTIONS TO VISIBILITY.


OHZ036-037-039>041-045>050-054>059-063>069-073>076-082>088-260300-
  CENTRAL AND SOUTHEAST OHIO
  
CITY           SKY/WX    TMP DP  RH WIND       PRES   REMARKS
COLUMBUS       FAIR      77  58  51 SW8       30.00R                  
OSU AIRPORT    FAIR      75  59  57 SW9       30.01R                  
BOLTON FIELD   FAIR      71  61  70 SW7       30.02R                  
RICKENBACK AFB FAIR      71  60  68 SW5       30.01R                  
NEWARK         FAIR      74  61  63 SW6       30.00R                  
MARION         FAIR      73  59  61 SW7       30.00R                  
LANCASTER      FAIR      73  60  63 SW6       30.02R                  
ZANESVILLE     FAIR      72  61  68 S5        30.01R                  
NEW PHILLY     FAIR      69  62  78 CALM      30.00R                  
$$
  

SKY/WX - Weather  TMP - Temperature  DP - Dew Point  RH - Relative Humidity
WIND - Wind Direction/Speed PRES - Barometric Pressure VSB - Visibility
WCI - Wind Chill Index E13G22 Wind - East Wind 13 mph/Gusts of 22 mph